Date String (YYYY-MM-DD hh:mm:ss) UTC,Instrument flags,absolute air pressure of the measurement (hPa),sample flow rate (lpm),inlet stack bypass flow (lpm),air temperature of the measurement (°C),ambient temperature measured by the external sensor (°C),aerosol sample conditioner tube jacket temperature (°C),OPC LED temperature (°C),internal box temperature (°C),relative humidity of the measurement (%),span deviation,mass concentration of particles derived from Lorenz-Mie calculation of OPC scattering (μg/m³),mass concentration of particles derived from Lorenz-Mie calculation of OPC scattering (μg/m³),mass concentration of particles derived from Lorenz-Mie calculation of OPC scattering (μg/m³)
DateTimeUTC,F1_M11,P_M11,Q1_M11,Q2_M11,T1_M11,T2_M11,T3_M11,T4_M11,T5_M11,U1_M11,ZSPAN_M11,X2_M11,X0_M11,X1_M11
2023-06-14 00:00:00,SystemResetWarning,0827.7,5.01,000.00,030.2,028.9,000.0,038.6,031.9,25.1,0000.0,0001.64,0006.92,0001.26
2023-06-14 00:01:00,SystemResetWarning,0827.6,5.02,000.00,030.2,028.9,000.0,038.7,031.9,24.2,0000.0,0001.63,0006.62,0001.26
2023-06-14 00:02:00,SystemResetWarning,0827.6,4.98,000.00,030.2,028.9,000.0,038.7,031.9,24.9,0000.0,0001.68,0004.95,0001.27
2023-06-14 00:03:00,SystemResetWarning,0827.6,4.99,000.00,030.3,027.5,000.0,038.7,031.9,25.3,0000.0,0001.71,0004.64,0001.27
2023-06-14 00:04:00,SystemResetWarning,0827.5,5.02,000.00,030.2,025.6,000.0,038.6,031.8,26.3,0000.0,0001.70,0004.62,0001.28
2023-06-14 00:05:00,SystemResetWarning,0827.5,5.00,000.00,030.2,025.3,000.0,038.6,031.6,25.8,0000.0,0001.71,0004.65,0001.28
2023-06-14 00:06:00,SystemResetWarning,0828.0,4.99,000.00,030.1,025.6,000.0,038.6,031.3,25.4,0000.0,0001.71,0004.69,0001.29
2023-06-14 00:07:00,SystemResetWarning,0827.4,5.01,000.00,030.0,026.0,000.0,038.6,031.3,25.4,0000.0,0001.67,0004.31,0001.29
2023-06-14 00:08:00,SystemResetWarning,0827.6,4.99,000.00,029.9,026.4,000.0,038.5,031.3,25.2,0000.0,0001.64,0004.09,0001.30
2023-06-14 00:09:00,SystemResetWarning,0828.0,5.00,000.00,029.9,026.8,000.0,038.5,031.3,25.4,0000.0,0001.66,0004.13,0001.31
2023-06-14 00:10:00,SystemResetWarning,0827.9,5.00,000.00,029.9,027.2,000.0,038.5,031.3,26.0,0000.0,0001.64,0003.29,0001.31
2023-06-14 00:11:00,SystemResetWarning,0827.5,4.98,000.00,029.9,027.5,000.0,038.5,031.4,25.0,0000.0,0001.61,0003.57,0001.30
2023-06-14 00:12:00,SystemResetWarning,0827.9,5.00,000.00,029.9,027.7,000.0,038.5,031.4,24.9,0000.0,0001.64,0003.48,0001.30
2023-06-14 00:13:00,SystemResetWarning,0827.9,5.01,000.00,029.9,027.9,000.0,038.5,031.4,25.2,0000.0,0001.62,0003.37,0001.29
2023-06-14 00:14:00,SystemResetWarning,0827.7,5.01,000.00,029.9,028.1,000.0,038.5,031.4,25.3,0000.0,0001.58,0003.15,0001.29
2023-06-14 00:15:00,SystemResetWarning,0827.8,5.01,000.00,029.9,028.2,000.0,038.5,031.5,25.4,0000.0,0001.63,0003.35,0001.29
2023-06-14 00:16:00,SystemResetWarning,0827.6,4.99,000.00,029.9,028.3,000.0,038.5,031.5,25.0,0000.0,0001.65,0003.41,0001.31
2023-06-14 00:17:00,SystemResetWarning,0827.5,4.99,000.00,030.0,028.4,000.0,038.5,031.5,24.8,0000.0,0001.70,0003.92,0001.32
2023-06-14 00:18:00,SystemResetWarning,0827.6,5.01,000.00,030.0,028.5,000.0,038.5,031.6,24.5,0000.0,0001.70,0004.07,0001.31
2023-06-14 00:19:00,SystemResetWarning,0827.4,5.01,000.00,030.0,028.6,000.0,038.5,031.6,25.1,0000.0,0001.69,0004.05,0001.31
2023-06-14 00:20:00,SystemResetWarning,0827.5,4.99,000.00,030.0,028.6,000.0,038.5,031.6,25.1,0000.0,0001.72,0004.07,0001.32
2023-06-14 00:21:00,SystemResetWarning,0827.6,5.01,000.00,030.0,028.7,000.0,038.5,031.6,25.3,0000.0,0001.79,0004.09,0001.33
2023-06-14 00:22:00,SystemResetWarning,0827.7,5.01,000.00,030.1,028.7,000.0,038.5,031.7,25.4,0000.0,0001.81,0003.50,0001.35
2023-06-14 00:23:00,SystemResetWarning,0827.8,4.98,000.00,030.1,028.7,000.0,038.6,031.7,25.0,0000.0,0001.79,0003.45,0001.35
2023-06-14 00:24:00,SystemResetWarning,0827.8,5.00,000.00,030.1,028.8,000.0,038.6,031.7,25.6,0000.0,0001.82,0003.90,0001.37
2023-06-14 00:25:00,SystemResetWarning,0827.7,5.00,000.00,030.1,028.8,000.0,038.6,031.8,24.9,0000.0,0001.87,0004.45,0001.38
2023-06-14 00:26:00,SystemResetWarning,0827.5,5.00,000.00,030.1,028.8,000.0,038.6,031.8,24.9,0000.0,0001.86,0004.33,0001.40
2023-06-14 00:27:00,SystemResetWarning,0827.5,5.01,000.00,030.1,028.9,000.0,038.6,031.8,24.1,0000.0,0001.90,0004.41,0001.41
2023-06-14 00:28:00,SystemResetWarning,0827.5,5.00,000.00,030.2,028.6,000.0,038.6,031.8,24.5,0000.0,0001.90,0003.93,0001.42
2023-06-14 00:29:00,SystemResetWarning,0827.5,4.98,000.00,030.2,026.5,000.0,038.6,031.7,24.9,0000.0,0001.95,0003.94,0001.44
2023-06-14 00:30:00,SystemResetWarning,0827.5,5.00,000.00,030.1,025.3,000.0,038.5,031.6,24.6,0000.0,0002.03,0005.29,0001.46
2023-06-14 00:31:00,SystemResetWarning,0827.5,5.02,000.00,030.1,025.4,000.0,038.5,031.4,25.4,0000.0,0002.03,0005.76,0001.47
2023-06-14 00:32:00,SystemResetWarning,0827.8,4.99,000.00,030.0,025.7,000.0,038.5,031.2,25.6,0000.0,0002.01,0005.71,0001.47
2023-06-14 00:33:00,SystemResetWarning,0827.6,4.99,000.00,029.9,026.2,000.0,038.5,031.2,25.7,0000.0,0002.03,0005.76,0001.49
2023-06-14 00:34:00,SystemResetWarning,0827.6,5.00,000.00,029.9,026.6,000.0,038.5,031.2,24.5,0000.0,0002.05,0005.79,0001.50
2023-06-14 00:35:00,SystemResetWarning,0827.5,5.00,000.00,029.9,027.0,000.0,038.5,031.2,25.0,0000.0,0002.05,0005.67,0001.49
2023-06-14 00:36:00,SystemResetWarning,0827.5,5.00,000.00,029.9,027.3,000.0,038.5,031.3,25.0,0000.0,0002.01,0005.43,0001.49
2023-06-14 00:37:00,SystemResetWarning,0827.5,5.00,000.00,029.8,027.5,000.0,038.4,031.4,25.1,0000.0,0002.00,0005.49,0001.48
2023-06-14 00:38:00,SystemResetWarning,0827.6,5.00,000.00,029.8,027.8,000.0,038.4,031.4,24.8,0000.0,0001.98,0005.56,0001.47
2023-06-14 00:39:00,SystemResetWarning,0827.5,5.00,000.00,029.9,027.9,000.0,038.4,031.4,25.1,0000.0,0001.93,0005.58,0001.47
2023-06-14 00:40:00,SystemResetWarning,0827.6,4.99,000.00,029.9,028.1,000.0,038.4,031.4,25.4,0000.0,0001.89,0007.20,0001.46
2023-06-14 00:41:00,SystemResetWarning,0827.6,5.00,000.00,029.9,028.2,000.0,038.4,031.4,24.7,0000.0,0001.83,0005.91,0001.46
2023-06-14 00:42:00,SystemResetWarning,0827.6,5.00,000.00,029.9,028.3,000.0,038.4,031.4,24.5,0000.0,0001.82,0005.30,0001.46
2023-06-14 00:43:00,SystemResetWarning,0827.6,5.01,000.00,029.9,028.4,000.0,038.4,031.5,24.3,0000.0,0001.81,0005.26,0001.46
2023-06-14 00:44:00,SystemResetWarning,0827.6,5.00,000.00,029.9,028.4,000.0,038.5,031.5,24.1,0000.0,0001.79,0005.16,0001.46
2023-06-14 00:45:00,SystemResetWarning,0827.6,5.00,000.00,029.9,028.5,000.0,038.5,031.5,24.6,0000.0,0001.77,0005.14,0001.46
2023-06-14 00:46:00,SystemResetWarning,0827.7,5.00,000.00,029.9,028.5,000.0,038.5,031.5,24.7,0000.0,0001.76,0005.33,0001.46
2023-06-14 00:47:00,SystemResetWarning,0827.7,5.00,000.00,030.0,028.6,000.0,038.5,031.5,24.7,0000.0,0001.77,0004.92,0001.48
2023-06-14 00:48:00,SystemResetWarning,0827.7,5.00,000.00,030.0,028.6,000.0,038.5,031.6,25.0,0000.0,0001.76,0004.73,0001.49
2023-06-14 00:49:00,SystemResetWarning,0827.7,4.99,000.00,030.0,028.7,000.0,038.5,031.6,24.7,0000.0,0001.76,0004.65,0001.51
2023-06-14 00:50:00,SystemResetWarning,0827.7,5.00,000.00,030.0,028.7,000.0,038.5,031.7,25.2,0000.0,0001.77,0004.47,0001.53
2023-06-14 00:51:00,SystemResetWarning,0827.7,5.01,000.00,030.0,028.7,000.0,038.5,031.7,25.3,0000.0,0001.79,0003.61,0001.55
2023-06-14 00:52:00,SystemResetWarning,0827.7,5.00,000.00,030.0,028.8,000.0,038.5,031.7,24.4,0000.0,0001.78,0003.07,0001.55
2023-06-14 00:53:00,SystemResetWarning,0827.7,5.00,000.00,030.1,028.8,000.0,038.5,031.7,24.7,0000.0,0001.80,0003.11,0001.56
2023-06-14 00:54:00,SystemResetWarning,0827.7,4.98,000.00,030.1,027.9,000.0,038.5,031.7,24.6,0000.0,0001.84,0003.23,0001.58
2023-06-14 00:55:00,SystemResetWarning,0827.7,5.00,000.00,030.1,025.8,000.0,038.5,031.6,24.4,0000.0,0001.81,0003.21,0001.58
2023-06-14 00:56:00,SystemResetWarning,0827.7,5.00,000.00,030.1,025.3,000.0,038.4,031.5,23.1,0000.0,0001.86,0003.32,0001.60
2023-06-14 00:57:00,SystemResetWarning,0827.7,5.02,000.00,030.0,025.5,000.0,038.4,031.3,23.6,0000.0,0001.88,0003.55,0001.60
2023-06-14 00:58:00,SystemResetWarning,0827.7,5.00,000.00,029.9,025.9,000.0,038.4,031.2,24.1,0000.0,0001.90,0003.90,0001.62
2023-06-14 00:59:00,SystemResetWarning,0827.7,4.99,000.00,029.8,026.3,000.0,038.4,031.2,24.2,0000.0,0001.93,0003.95,0001.64
